Time,TemperatureF,DewpointF,PressureIn,WindDirection,WindDirectionDegrees,WindSpeedMPH,WindSpeedGustMPH,Humidity,HourlyPrecipIn,Conditions,Clouds,dailyrainin,SoftwareType,DateUTC
2013-04-01 00:40:00,37.0,26.0,29.90,NNW,338,7.8,7.8,64,0.00,,,0.00,WUHU21623XXSP,2013-04-01 05:40:00,
2013-04-01 01:40:00,35.8,25.3,29.92,NW,315,10.5,10.5,65,0.00,,,0.00,WUHU21623XXSP,2013-04-01 06:40:00,
2013-04-01 02:40:00,34.5,24.4,29.94,NW,315,9.6,9.6,66,0.00,,,0.00,WUHU21623XXSP,2013-04-01 07:40:00,
2013-04-01 03:40:00,33.8,23.3,29.96,NNW,338,5.1,5.1,65,0.00,,,0.00,WUHU21623XXSP,2013-04-01 08:40:00,
2013-04-01 04:40:00,30.7,21.5,29.98,NW,315,4.7,4.7,68,0.00,,,0.00,WUHU21623XXSP,2013-04-01 09:40:00,
2013-04-01 05:40:00,28.9,20.4,30.00,NNW,338,6.3,6.3,70,0.00,,,0.00,WUHU21623XXSP,2013-04-01 10:40:00,
2013-04-01 06:40:00,28.2,20.4,30.03,NNW,338,4.9,4.9,72,0.00,,,0.00,WUHU21623XXSP,2013-04-01 11:40:00,
2013-04-01 07:40:00,29.8,21.9,30.06,WNW,293,5.6,5.6,72,0.00,,,0.00,WUHU21623XXSP,2013-04-01 12:40:00,
2013-04-01 08:21:00,31.6,22.3,30.08,NNW,337,18.6,18.6,68,0.00,,,0.00,WUHU21623XXSP,2013-04-01 13:21:00,
2013-04-01 08:26:00,31.6,22.3,30.08,North,0,13.4,18.6,68,1.35,,,1.35,WUHU21623XXSP,2013-04-01 13:26:00,
2013-04-01 08:31:00,31.8,22.1,30.08,NNW,337,10.1,19.2,67,1.35,,,1.35,WUHU21623XXSP,2013-04-01 13:31:00,
2013-04-01 08:36:00,32.2,22.4,30.08,North,0,13.6,19.2,67,1.35,,,1.35,WUHU21623XXSP,2013-04-01 13:36:00,
2013-04-01 08:41:00,32.2,22.1,30.08,NW,315,8.9,19.9,65,0.00,,,1.35,WUHU21623XXSP,2013-04-01 13:41:00,
2013-04-01 08:46:00,32.5,22.0,30.08,North,0,8.7,19.9,65,0.00,,,1.35,WUHU21623XXSP,2013-04-01 13:46:00,
2013-04-01 08:51:00,32.7,22.2,30.09,NNW,337,13.6,18.1,65,0.00,,,1.35,WUHU21623XXSP,2013-04-01 13:51:00,
2013-04-01 08:57:00,32.7,21.8,30.09,NNW,337,3.4,20.6,64,0.00,,,1.35,WUHU21623XXSP,2013-04-01 13:57:00,
2013-04-01 09:02:00,33.1,21.8,30.09,NNW,337,17.0,19.0,63,0.00,,,1.35,WUHU21623XXSP,2013-04-01 14:02:00,
2013-04-01 09:07:00,33.3,22.0,30.09,WNW,292,18.1,19.0,63,0.00,,,1.35,WUHU21623XXSP,2013-04-01 14:07:00,
2013-04-01 09:12:00,33.4,21.8,30.10,North,0,11.0,18.1,62,0.00,,,1.35,WUHU21623XXSP,2013-04-01 14:12:00,
2013-04-01 09:17:00,33.6,21.9,30.10,NW,315,8.7,16.8,62,0.00,,,1.35,WUHU21623XXSP,2013-04-01 14:17:00,
2013-04-01 09:22:00,33.8,21.7,30.10,NNW,337,9.8,16.8,61,0.00,,,1.35,WUHU21623XXSP,2013-04-01 14:22:00,
2013-04-01 09:27:00,34.0,21.9,30.10,NNW,337,11.0,16.3,61,0.00,,,1.35,WUHU21623XXSP,2013-04-01 14:27:00,
2013-04-01 09:32:00,34.3,21.9,30.11,NNW,337,8.9,17.9,60,0.00,,,1.35,WUHU21623XXSP,2013-04-01 14:32:00,
2013-04-01 09:37:00,34.3,21.9,30.11,NW,315,7.2,17.9,60,0.00,,,1.35,WUHU21623XXSP,2013-04-01 14:37:00,
2013-04-01 09:42:00,34.3,21.9,30.11,NNW,337,8.1,18.6,60,0.00,,,1.35,WUHU21623XXSP,2013-04-01 14:42:00,
2013-04-01 09:47:00,34.7,22.3,30.11,NNW,337,10.1,18.6,60,0.00,,,1.35,WUHU21623XXSP,2013-04-01 14:47:00,
2013-04-01 09:52:00,35.2,22.4,30.11,NNW,337,9.2,17.0,59,0.00,,,1.35,WUHU21623XXSP,2013-04-01 14:52:00,
2013-04-01 09:57:00,35.4,22.1,30.11,NNW,337,8.1,17.0,58,0.00,,,1.35,WUHU21623XXSP,2013-04-01 14:57:00,
2013-04-01 10:03:00,35.4,21.7,30.11,NNE,22,6.7,15.4,57,0.00,,,1.35,WUHU21623XXSP,2013-04-01 15:03:00,
2013-04-01 10:08:00,35.4,21.7,30.11,NW,315,13.6,15.7,57,0.00,,,1.35,WUHU21623XXSP,2013-04-01 15:08:00,
2013-04-01 10:13:00,36.0,22.2,30.11,North,0,9.4,15.7,57,0.00,,,1.35,WUHU21623XXSP,2013-04-01 15:13:00,
2013-04-01 10:18:00,36.3,22.1,30.12,NNW,337,7.8,18.8,56,0.00,,,1.35,WUHU21623XXSP,2013-04-01 15:18:00,
2013-04-01 10:23:00,36.3,21.7,30.12,WNW,292,9.8,18.8,55,0.00,,,1.35,WUHU21623XXSP,2013-04-01 15:23:00,
2013-04-01 10:28:00,36.5,21.8,30.12,WNW,292,6.0,19.0,55,0.00,,,1.35,WUHU21623XXSP,2013-04-01 15:28:00,
2013-04-01 10:33:00,36.7,21.6,30.12,WNW,292,6.9,19.0,54,0.00,,,1.35,WUHU21623XXSP,2013-04-01 15:33:00,
2013-04-01 10:38:00,36.9,21.7,30.12,WSW,247,10.3,17.2,54,0.00,,,1.35,WUHU21623XXSP,2013-04-01 15:38:00,
2013-04-01 10:43:00,36.9,21.3,30.12,NW,315,12.8,16.3,53,0.00,,,1.35,WUHU21623XXSP,2013-04-01 15:43:00,
2013-04-01 10:48:00,36.9,21.3,30.12,NW,315,7.6,17.2,53,0.00,,,1.35,WUHU21623XXSP,2013-04-01 15:48:00,
2013-04-01 10:53:00,37.0,21.5,30.12,WNW,292,15.2,18.8,53,0.00,,,1.35,WUHU21623XXSP,2013-04-01 15:53:00,
2013-04-01 10:58:00,37.2,21.6,30.12,NW,315,9.2,18.8,53,0.00,,,1.35,WUHU21623XXSP,2013-04-01 15:58:00,
2013-04-01 11:03:00,37.2,21.6,30.12,NNW,337,7.4,17.9,53,0.00,,,1.35,WUHU21623XXSP,2013-04-01 16:03:00,
2013-04-01 11:08:00,37.2,21.2,30.12,NNW,337,11.6,17.9,52,0.00,,,1.35,WUHU21623XXSP,2013-04-01 16:08:00,
2013-04-01 11:13:00,37.2,20.8,30.13,NNW,337,4.0,23.7,51,0.00,,,1.35,WUHU21623XXSP,2013-04-01 16:13:00,
2013-04-01 11:18:00,37.2,21.2,30.13,WNW,292,8.7,23.7,52,0.00,,,1.35,WUHU21623XXSP,2013-04-01 16:18:00,
2013-04-01 11:23:00,37.6,21.5,30.13,NNW,337,9.4,19.9,52,0.00,,,1.35,WUHU21623XXSP,2013-04-01 16:23:00,
2013-04-01 11:28:00,37.8,21.7,30.13,West,270,6.0,19.9,52,0.00,,,1.35,WUHU21623XXSP,2013-04-01 16:28:00,
2013-04-01 11:33:00,38.1,22.0,30.13,NW,315,5.6,15.7,52,0.00,,,1.35,WUHU21623XXSP,2013-04-01 16:33:00,
2013-04-01 11:38:00,38.1,21.6,30.13,WNW,292,6.3,16.1,51,0.00,,,1.35,WUHU21623XXSP,2013-04-01 16:38:00,
2013-04-01 11:43:00,38.5,21.9,30.13,WNW,292,13.0,16.3,51,0.00,,,1.35,WUHU21623XXSP,2013-04-01 16:43:00,
2013-04-01 11:48:00,39.0,22.4,30.13,NNW,337,8.5,16.3,51,0.00,,,1.35,WUHU21623XXSP,2013-04-01 16:48:00,
2013-04-01 11:53:00,39.4,22.3,30.13,NNW,337,9.6,13.4,50,0.00,,,1.35,WUHU21623XXSP,2013-04-01 16:53:00,
2013-04-01 11:58:00,39.4,21.7,30.13,NNW,337,11.4,16.8,49,0.00,,,1.35,WUHU21623XXSP,2013-04-01 16:58:00,
2013-04-01 12:03:00,39.4,21.7,30.13,WNW,292,10.1,16.8,49,0.00,,,1.35,WUHU21623XXSP,2013-04-01 17:03:00,
2013-04-01 12:08:00,39.4,21.7,30.13,NW,315,8.1,20.6,49,0.00,,,1.35,WUHU21623XXSP,2013-04-01 17:08:00,
2013-04-01 12:13:00,39.4,21.2,30.13,NW,315,9.2,20.6,48,0.00,,,1.35,WUHU21623XXSP,2013-04-01 17:13:00,
2013-04-01 12:18:00,39.0,21.4,30.13,NNW,337,8.5,19.9,49,0.00,,,1.35,WUHU21623XXSP,2013-04-01 17:18:00,
2013-04-01 12:24:00,39.2,21.6,30.13,NNW,337,5.4,19.9,49,0.00,,,1.35,WUHU21623XXSP,2013-04-01 17:24:00,
2013-04-01 12:29:00,39.4,21.7,30.13,NNW,337,12.3,17.9,49,0.00,,,1.35,WUHU21623XXSP,2013-04-01 17:29:00,
2013-04-01 12:34:00,39.6,21.4,30.13,WNW,292,7.8,20.1,48,0.00,,,1.35,WUHU21623XXSP,2013-04-01 17:34:00,
2013-04-01 12:39:00,39.6,21.4,30.13,WNW,292,7.4,20.1,48,0.00,,,1.35,WUHU21623XXSP,2013-04-01 17:39:00,
2013-04-01 12:44:00,39.7,22.1,30.13,NNW,337,19.5,19.5,49,0.00,,,1.35,WUHU21623XXSP,2013-04-01 17:44:00,
2013-04-01 12:49:00,39.9,21.7,30.13,NNW,337,12.8,19.5,48,0.00,,,1.35,WUHU21623XXSP,2013-04-01 17:49:00,
2013-04-01 12:54:00,39.9,22.2,30.13,NW,315,12.5,15.7,49,0.00,,,1.35,WUHU21623XXSP,2013-04-01 17:54:00,
2013-04-01 12:59:00,39.9,21.7,30.12,NW,315,12.1,18.1,48,0.00,,,1.35,WUHU21623XXSP,2013-04-01 17:59:00,
2013-04-01 13:04:00,39.4,21.2,30.12,North,0,12.1,18.1,48,0.00,,,1.35,WUHU21623XXSP,2013-04-01 18:04:00,
2013-04-01 13:09:00,39.6,21.4,30.12,NW,315,17.4,18.1,48,0.00,,,1.35,WUHU21623XXSP,2013-04-01 18:09:00,
2013-04-01 13:14:00,39.7,21.5,30.12,NW,315,16.6,18.1,48,0.00,,,1.35,WUHU21623XXSP,2013-04-01 18:14:00,
2013-04-01 13:19:00,39.9,21.7,30.12,NW,315,7.2,20.1,48,0.00,,,1.35,WUHU21623XXSP,2013-04-01 18:19:00,
2013-04-01 13:24:00,40.1,21.9,30.12,NNW,337,15.4,20.1,48,0.00,,,1.35,WUHU21623XXSP,2013-04-01 18:24:00,
2013-04-01 13:29:00,39.9,21.2,30.12,NNW,337,8.5,22.1,47,0.00,,,1.35,WUHU21623XXSP,2013-04-01 18:29:00,
2013-04-01 13:34:00,39.9,21.7,30.12,NW,315,12.1,22.1,48,0.00,,,1.35,WUHU21623XXSP,2013-04-01 18:34:00,
2013-04-01 13:39:00,40.5,22.7,30.12,North,0,16.3,16.3,49,0.00,,,1.35,WUHU21623XXSP,2013-04-01 18:39:00,
2013-04-01 13:44:00,40.8,22.5,30.12,WNW,292,5.8,16.6,48,0.00,,,1.35,WUHU21623XXSP,2013-04-01 18:44:00,
2013-04-01 13:49:00,41.2,22.8,30.12,NNW,337,10.5,20.1,48,0.00,,,1.35,WUHU21623XXSP,2013-04-01 18:49:00,
2013-04-01 13:54:00,41.0,22.7,30.12,WNW,292,8.5,20.1,48,0.00,,,1.35,WUHU21623XXSP,2013-04-01 18:54:00,
2013-04-01 13:59:00,41.4,23.0,30.12,NNW,337,14.8,19.2,48,0.00,,,1.35,WUHU21623XXSP,2013-04-01 18:59:00,
2013-04-01 14:04:00,41.2,21.8,30.12,NNW,337,10.7,19.2,46,0.00,,,1.35,WUHU21623XXSP,2013-04-01 19:04:00,
2013-04-01 14:09:00,40.8,21.5,30.12,North,0,8.5,18.8,46,0.00,,,1.35,WUHU21623XXSP,2013-04-01 19:09:00,
2013-04-01 14:14:00,41.2,21.8,30.12,NNW,337,12.1,15.4,46,0.00,,,1.35,WUHU21623XXSP,2013-04-01 19:14:00,
2013-04-01 14:40:00,41.9,22.5,30.10,NW,315,5.6,5.6,46,0.00,,,0.00,WUHU21623XXSP,2013-04-01 19:40:00,
2013-04-01 15:40:00,41.9,22.0,30.10,NNW,338,8.9,8.9,45,0.00,,,0.00,WUHU21623XXSP,2013-04-01 20:40:00,
2013-04-01 16:40:00,41.7,21.8,30.10,West,270,6.5,6.5,45,0.00,,,0.00,WUHU21623XXSP,2013-04-01 21:40:00,
2013-04-01 17:40:00,40.8,19.9,30.11,NW,315,5.8,5.8,43,0.00,,,0.00,WUHU21623XXSP,2013-04-01 22:40:00,
2013-04-01 18:40:00,40.8,20.4,30.11,WNW,293,7.4,7.4,44,0.00,,,0.00,WUHU21623XXSP,2013-04-01 23:40:00,
2013-04-01 19:03:00,37.9,18.9,30.12,NW,315,9.8,9.8,46,0.00,,,0.00,WUHU21623XXSP,2013-04-02 00:03:00,
2013-04-01 19:08:00,37.2,18.8,30.12,NW,315,3.1,11.0,47,1.35,,,1.35,WUHU21623XXSP,2013-04-02 00:08:00,
2013-04-01 19:13:00,36.5,18.6,30.12,NW,315,8.1,11.0,48,1.35,,,1.35,WUHU21623XXSP,2013-04-02 00:13:00,
2013-04-01 19:18:00,36.0,18.1,30.12,NNW,337,8.3,10.3,48,1.35,,,1.35,WUHU21623XXSP,2013-04-02 00:18:00,
2013-04-01 19:23:00,35.4,18.2,30.12,NW,315,4.0,10.3,49,1.35,,,1.35,WUHU21623XXSP,2013-04-02 00:23:00,
2013-04-01 19:28:00,34.9,17.6,30.12,NNW,337,0.0,8.3,49,1.35,,,1.35,WUHU21623XXSP,2013-04-02 00:28:00,
2013-04-01 19:33:00,34.3,17.6,30.12,WNW,292,0.0,8.1,50,1.35,,,1.35,WUHU21623XXSP,2013-04-02 00:33:00,
2013-04-01 19:38:00,34.0,17.7,30.12,WNW,292,0.0,4.3,51,1.35,,,1.35,WUHU21623XXSP,2013-04-02 00:38:00,
2013-04-01 19:45:00,33.1,17.3,30.12,WNW,292,0.0,2.0,52,0.00,,,1.35,WUHU21623XXSP,2013-04-02 00:45:00,
2013-04-01 19:49:00,32.7,17.4,30.12,NW,315,0.0,2.0,53,0.00,,,1.35,WUHU21623XXSP,2013-04-02 00:49:00,
2013-04-01 19:54:00,32.2,16.9,30.12,WNW,292,0.0,0.0,53,0.00,,,1.35,WUHU21623XXSP,2013-04-02 00:54:00,
2013-04-01 20:22:00,30.0,16.6,30.14,WNW,292,0.0,0.0,57,0.00,,,1.35,WUHU21623XXSP,2013-04-02 01:22:00,
2013-04-01 20:27:00,29.8,16.8,30.14,WNW,292,0.0,1.6,58,0.00,,,1.35,WUHU21623XXSP,2013-04-02 01:27:00,
2013-04-01 20:32:00,29.5,16.5,30.14,WNW,292,3.6,5.4,58,0.00,,,1.35,WUHU21623XXSP,2013-04-02 01:32:00,
2013-04-01 20:37:00,29.5,16.9,30.14,WNW,292,1.8,5.4,59,0.00,,,1.35,WUHU21623XXSP,2013-04-02 01:37:00,
2013-04-01 20:42:00,29.3,16.7,30.14,WNW,292,0.0,4.9,59,0.00,,,1.35,WUHU21623XXSP,2013-04-02 01:42:00,
2013-04-01 20:47:00,29.3,16.7,30.15,WNW,292,0.0,6.7,59,0.00,,,1.35,WUHU21623XXSP,2013-04-02 01:47:00,
2013-04-01 20:52:00,29.1,17.0,30.15,WNW,292,2.2,6.7,60,0.00,,,1.35,WUHU21623XXSP,2013-04-02 01:52:00,
2013-04-01 20:57:00,29.3,17.1,30.15,WNW,292,6.7,7.4,60,0.00,,,1.35,WUHU21623XXSP,2013-04-02 01:57:00,
2013-04-01 21:02:00,29.5,17.3,30.15,WNW,292,5.6,7.4,60,0.00,,,1.35,WUHU21623XXSP,2013-04-02 02:02:00,
2013-04-01 21:07:00,29.5,17.3,30.15,WNW,292,0.0,9.4,60,0.00,,,1.35,WUHU21623XXSP,2013-04-02 02:07:00,
2013-04-01 21:13:00,29.5,17.7,30.15,WNW,292,0.0,9.4,61,0.00,,,1.35,WUHU21623XXSP,2013-04-02 02:13:00,
2013-04-01 21:18:00,29.1,17.3,30.15,WNW,292,3.6,5.6,61,0.00,,,1.35,WUHU21623XXSP,2013-04-02 02:18:00,
2013-04-01 21:23:00,29.1,17.7,30.15,West,270,4.7,5.6,62,0.00,,,1.35,WUHU21623XXSP,2013-04-02 02:23:00,
2013-04-01 21:28:00,28.9,17.5,30.15,WNW,292,5.6,6.7,62,0.00,,,1.35,WUHU21623XXSP,2013-04-02 02:28:00,
2013-04-01 21:33:00,28.9,17.5,30.16,WNW,292,0.0,7.2,62,0.00,,,1.35,WUHU21623XXSP,2013-04-02 02:33:00,
2013-04-01 21:38:00,29.1,18.1,30.16,WNW,292,0.0,7.2,63,0.00,,,1.35,WUHU21623XXSP,2013-04-02 02:38:00,
2013-04-01 21:43:00,28.9,17.9,30.16,NW,315,4.5,7.2,63,0.00,,,1.35,WUHU21623XXSP,2013-04-02 02:43:00,
2013-04-01 21:48:00,28.8,17.4,30.16,WNW,292,0.0,5.1,62,0.00,,,1.35,WUHU21623XXSP,2013-04-02 02:48:00,
2013-04-01 21:53:00,28.6,17.6,30.17,WNW,292,4.9,6.7,63,0.00,,,1.35,WUHU21623XXSP,2013-04-02 02:53:00,
2013-04-01 21:58:00,28.4,17.4,30.16,NW,315,0.0,6.7,63,0.00,,,1.35,WUHU21623XXSP,2013-04-02 02:58:00,
2013-04-01 22:03:00,28.2,17.6,30.17,NNW,337,2.0,6.3,64,0.00,,,1.35,WUHU21623XXSP,2013-04-02 03:03:00,
2013-04-01 22:08:00,28.2,17.6,30.17,NW,315,0.0,6.3,64,0.00,,,1.35,WUHU21623XXSP,2013-04-02 03:08:00,
2013-04-01 22:13:00,28.2,17.6,30.17,NW,315,0.0,6.7,64,0.00,,,1.35,WUHU21623XXSP,2013-04-02 03:13:00,
2013-04-01 22:18:00,28.2,18.0,30.17,NW,315,0.0,6.7,65,0.00,,,1.35,WUHU21623XXSP,2013-04-02 03:18:00,
2013-04-01 22:23:00,28.2,18.0,30.16,NW,315,0.0,4.5,65,0.00,,,1.35,WUHU21623XXSP,2013-04-02 03:23:00,
2013-04-01 22:40:00,27.5,17.3,30.17,NW,315,0.0,0.0,65,0.00,,,0.00,WUHU21623XXSP,2013-04-02 03:40:00,
2013-04-01 23:40:00,26.1,17.0,30.17,NW,315,0.0,0.0,68,0.00,,,0.00,WUHU21623XXSP,2013-04-02 04:40:00,